This is the latest recevied weather packets stored in our database for station/object KC8SWY-15. If no packets are shown the sender has not sent any weather packets the latest 10 day(s).
| Time | Temp. | Humidity | Pressure | Rain* | Wind** | Luminosity | Snow |
|---|---|---|---|---|---|---|---|
| 1777430400 | 9.44° C | 87% | 1014.4 hPa | 0 mm | - | - | - |
| 1777430100 | 10° C | 86% | 1014.4 hPa | 0 mm | - | - | - |
| 1777429800 | 10° C | 86% | 1014.4 hPa | 0 mm | - | - | - |
| 1777429500 | 10° C | 86% | 1014.4 hPa | 0 mm | - | - | - |
| 1777429200 | 10° C | 86% | 1014.5 hPa | 0 mm | - | - | - |
| 1777428900 | 10° C | 86% | 1014.4 hPa | 0 mm | - | - | - |
| 1777428600 | 10.56° C | 86% | 1014.3 hPa | 0 mm | - | - | - |
| 1777428300 | 10.56° C | 86% | 1014.2 hPa | 0 mm | - | - | - |
| 1777428000 | 10.56° C | 85% | 1014 hPa | 0 mm | - | - | - |
| 1777427700 | 10.56° C | 85% | 1014 hPa | 0 mm | - | - | - |
| 1777427400 | 10.56° C | 84% | 1013.7 hPa | 0 mm | - | - | - |
| 1777427100 | 11.11° C | 83% | 1013.4 hPa | 0 mm | - | - | - |
| 1777426800 | 11.11° C | 83% | 1013 hPa | 0 mm | - | - | - |
| 1777426500 | 11.11° C | 82% | 1012.8 hPa | 0 mm | - | - | - |
| 1777426200 | 11.11° C | 80% | 1012.7 hPa | 0 mm | - | - | - |
| 1777425900 | 11.11° C | 81% | 1012.7 hPa | 0 mm | - | - | - |
| 1777425600 | 11.67° C | 81% | 1012.8 hPa | 0 mm | - | - | - |
| 1777425300 | 11.67° C | 81% | 1012.7 hPa | 0 mm | - | - | - |
| 1777425000 | 11.67° C | 79% | 1012.6 hPa | 0 mm | - | - | - |
| 1777424700 | 12.22° C | 76% | 1012.6 hPa | 0 mm | - | - | - |
| 1777424400 | 12.22° C | 76% | 1012.6 hPa | 0 mm | - | - | - |
| 1777424100 | 12.78° C | 75% | 1012.4 hPa | 0 mm | - | - | - |
| 1777423800 | 12.78° C | 70% | 1012.4 hPa | 0 mm | - | - | - |
| 1777423500 | 12.78° C | 70% | 1012.4 hPa | 0 mm | - | - | - |
| 1777423200 | 13.33° C | 68% | 1012.4 hPa | 0 mm | - | - | - |
* Rain latest hour (hover to see other rain measurements)
** Current wind speed in m/s (hover to see current wind gust speed)